Simultaneous Nadir Overpasses (SNOs) Predictions

Prediction of SNOs between GOES-16 and METOP-B Satellite Orbit:

Table of predicted SNOs for the next 14.0 days since TLE Epoch: 3/17/2018
Index Date Time (GOES-16) GOES-16 Lat,Lon METOP-B Lat,Lon Distance(km) Time Diff (sec)
1 03/17/2018 14:27:01 0.02, -75.21 -0.23, -74.00 137.75 80
2 03/19/2018 02:43:21 -0.02, -75.20 -0.77, -78.60 387.34 80
3 03/20/2018 02:25:22 -0.03, -75.22 0.35, -73.61 183.32 80
4 03/21/2018 14:41:33 0.02, -75.27 0.66, -78.17 330.91 80
5 03/22/2018 14:23:33 0.02, -75.28 -0.47, -73.18 239.86 80
6 03/24/2018 02:39:53 -0.02, -75.27 -0.59, -77.77 284.97 80
7 03/25/2018 02:21:53 -0.02, -75.29 0.54, -72.78 285.87 80
8 03/26/2018 14:38:05 0.02, -75.35 0.47, -77.35 227.82 80
9 03/27/2018 14:20:05 0.02, -75.37 -0.66, -72.35 343.50 80
10 03/29/2018 02:36:24 -0.02, -75.37 -0.40, -76.94 180.12 80
11 03/30/2018 02:18:25 -0.02, -75.39 0.73, -71.95 391.72 80




NCC Satellite Simultaneous Nadir Overpasses (SNOs) Prediction Service
